Cotulla, TX

4:17 PM CST on November 13, 2019 (GMT -0600)
Cotulla-La Salle County

Weather History for KCOT - August, 2019

Change the Weather History Date:

Wednesday, August 7, 2019

  Actual Average Record
Temperature  
Mean Temperature 90 °F -  
Max Temperature 105 °F 97 °F 106 °F (2003)
Min Temperature 79 °F 73 °F 73 °F (2005)
Cooling Degree Days 26    
Growing Degree Days 40 (Base 50)    
Moisture  
Dew Point 71 °F    
Average Humidity 58    
Maximum Humidity 84    
Minimum Humidity 24    
Precipitation  
Precipitation 0.00 in - - ()
Sea Level Pressure  
Sea Level Pressure 29.86 in    
Wind  
Wind Speed 11 mph (SE)    
Max Wind Speed 24 mph    
Max Gust Speed 31 mph    
Visibility 10 miles    
Events      
Averages and records for this station are not official NWS values.
T = Trace of Precipitation, MM = Missing Value Source: NWS Daily Summary

Daily Weather History Graph

Daily Weather History Graph

Search for Another Location

Airport or City:

Astronomy

Aug. 07, 2019 Rise Set
Actual Time 7:01 AM CDT 8:23 PM CDT
Civil Twilight 6:36 AM CDT 8:48 PM CDT
Nautical Twilight 6:06 AM CDT 9:18 PM CDT
Astronomical Twilight 5:35 AM CDT 9:49 PM CDT
Moon 1:58 PM CDT (8/7) 12:43 AM CDT (8/7)
Length of Visible Light 14h 11m
Length of Day
13h 21m
Waxing Crescent, 50% of the Moon is Illuminated
Aug 7
Waxing Crescent
Aug 7
First Quarter
Aug 15
Full
Aug 23
Last Quarter
Aug 30
New

Hourly Weather History & Observations

Time (CDT) Temp. Heat Index Dew Point Humidity Pressure Visibility Wind Dir Wind Speed Gust Speed Precip Events Conditions
12:53 AM 86.0 °F 93.0 °F 73.0 °F 65% 29.91 in 10.0 mi SE 13.8 mph - N/A   Clear
1:53 AM 84.0 °F 89.6 °F 72.0 °F 67% 29.89 in 10.0 mi SE 10.4 mph - N/A   Clear
2:53 AM 82.9 °F 88.0 °F 72.0 °F 69% 29.88 in 10.0 mi SSE 8.1 mph - N/A   Clear
3:53 AM 81.0 °F 85.2 °F 72.0 °F 74% 29.88 in 10.0 mi SE 5.8 mph - N/A   Clear
4:53 AM 81.0 °F 85.2 °F 72.0 °F 74% 29.88 in 10.0 mi ESE 8.1 mph - N/A   Clear
5:53 AM 80.1 °F 84.2 °F 73.0 °F 79% 29.88 in 10.0 mi ESE 6.9 mph - N/A   Clear
6:53 AM 79.0 °F - 73.9 °F 84% 29.88 in 10.0 mi ESE 6.9 mph - N/A   Clear
7:53 AM 79.0 °F - 73.9 °F 84% 29.90 in 10.0 mi ESE 6.9 mph - N/A   Clear
8:53 AM 82.0 °F 88.6 °F 75.0 °F 79% 29.91 in 10.0 mi SE 11.5 mph - N/A   Partly Cloudy
9:15 AM 82.0 °F 88.6 °F 75.0 °F 79% 29.94 in 10.0 mi SSE 9.2 mph - N/A   Mostly Cloudy
9:41 AM 84.0 °F 91.9 °F 75.0 °F 74% 29.94 in 10.0 mi SSE 12.7 mph - N/A   Mostly Cloudy
9:53 AM 84.9 °F 93.3 °F 75.0 °F 72% 29.92 in 10.0 mi SSE 11.5 mph - N/A   Mostly Cloudy
10:05 AM 86.0 °F 95.1 °F 75.0 °F 70% 29.94 in 10.0 mi South 9.2 mph - N/A   Scattered Clouds
10:53 AM 89.1 °F 97.0 °F 73.0 °F 59% 29.91 in 10.0 mi South 9.2 mph - N/A   Clear
11:53 AM 93.0 °F 100.7 °F 72.0 °F 50% 29.90 in 10.0 mi North - - N/A   Partly Cloudy
12:53 PM 96.1 °F 102.9 °F 70.0 °F 43% 29.88 in 10.0 mi SSE 6.9 mph - N/A   Clear
1:53 PM 99.0 °F 103.5 °F 66.9 °F 35% 29.87 in 10.0 mi Variable 6.9 mph 17.3 mph N/A   Partly Cloudy
2:53 PM 100.9 °F 103.3 °F 63.0 °F 29% 29.84 in 10.0 mi SE 8.1 mph 21.9 mph N/A   Partly Cloudy
3:53 PM 102.0 °F 103.9 °F 62.1 °F 27% 29.81 in 10.0 mi Variable 5.8 mph 17.3 mph N/A   Clear
4:53 PM 102.9 °F 104.2 °F 61.0 °F 25% 29.79 in 10.0 mi SE 13.8 mph 25.3 mph N/A   Partly Cloudy
5:53 PM 102.9 °F 103.6 °F 60.1 °F 24% 29.77 in 10.0 mi ESE 10.4 mph 19.6 mph N/A   Scattered Clouds
6:53 PM 102.0 °F 102.7 °F 60.1 °F 25% 29.76 in 10.0 mi SSE 10.4 mph - N/A   Partly Cloudy
7:53 PM 98.1 °F 105.0 °F 70.0 °F 40% 29.76 in 10.0 mi SE 24.2 mph 31.1 mph N/A   Partly Cloudy
8:53 PM 93.9 °F 103.4 °F 73.0 °F 51% 29.78 in 10.0 mi SE 17.3 mph 21.9 mph N/A   Clear
9:53 PM 91.0 °F 100.4 °F 73.9 °F 57% 29.81 in 10.0 mi SE 19.6 mph 31.1 mph N/A   Clear
10:53 PM 89.1 °F 98.0 °F 73.9 °F 61% 29.84 in 10.0 mi SE 19.6 mph - N/A   Clear
11:53 PM 87.1 °F 95.4 °F 73.9 °F 65% 29.86 in 10.0 mi SSE 20.7 mph 25.3 mph N/A   Clear